1510916400.61,56239,8.75,73650.8,-0.79,-3.03,-2.91,0,*6F
1510916401.82,56240,8.75,73650.0,-0.79,-2.99,-2.91,0,*63
1510916403.04,56241,8.75,73646.3,-0.79,-2.91,-2.87,0,*6D
1510916404.25,56242,8.75,73648.8,-0.79,-2.87,-2.87,0,*69
1510916405.46,56243,8.75,73650.5,-0.79,-2.79,-2.79,0,*68
1510916406.68,56244,8.75,73650.3,-0.79,-2.87,-2.79,0,*6E
1510916407.89,56245,8.75,73652.8,-0.79,-2.79,-2.79,0,*6E
1510916409.08,56246,8.75,73652.8,-0.77,-3.03,-3.03,0,*63
1510916410.27,56247,8.75,73652.3,-0.77,-3.11,-3.11,0,*62
1510916411.46,56248,8.75,73652.0,-0.77,-2.99,-2.99,0,*6D
1510916412.64,56249,8.75,73656.3,-0.77,-2.91,-2.91,0,*6C
1510916413.83,56250,8.81,73656.8,-0.77,-2.87,-2.79,0,*65
1510916415.02,56251,8.75,73656.5,-0.77,-2.87,-2.79,0,*64
1510916416.23,56252,8.81,73656.3,-0.75,-3.11,-3.11,0,*64
1510916417.42,56253,8.75,73652.8,-0.77,-3.31,-3.39,0,*6F
1510916418.61,56254,8.75,73654.0,-0.77,-3.31,-3.31,0,*60
1510916419.8,56255,8.75,73650.3,-0.77,-3.31,-3.19,0,*6B
1510916421.02,56256,8.75,73646.5,-0.79,-3.27,-3.19,0,*61
1510916422.24,56257,8.75,73644.3,-0.79,-3.15,-3.03,0,*6A
1510916423.46,56258,8.75,73646.5,-0.79,-3.11,-3.03,0,*61
1510916424.65,56259,8.75,73644.5,-0.77,-3.11,-3.03,0,*6E
1510916425.86,56260,8.81,73652.0,-0.79,-3.27,-3.15,0,*68
1510916427.07,56261,8.75,73648.8,-0.79,-3.19,-3.15,0,*64
1510916428.29,56262,8.75,73652.0,-0.79,-3.15,-3.11,0,*6F
1510916429.51,56263,8.75,73654.3,-0.79,-3.27,-3.15,0,*6B
1510916430.73,56264,8.75,73650.8,-0.79,-3.11,-3.11,0,*6D
1510916431.94,56265,8.75,73652.5,-0.79,-2.99,-2.91,0,*64
1510916433.16,56266,8.75,73648.3,-0.79,-3.03,-2.99,0,*6D
1510916434.38,56267,8.75,73654.8,-0.79,-2.99,-3.03,0,*6C
1510916435.58,56268,8.75,73652.3,-0.79,-2.91,-2.91,0,*61
1510916436.79,56269,8.75,73650.8,-0.79,-2.91,-2.79,0,*66
1510916438.01,56270,8.75,73652.0,-0.79,-2.87,-2.79,0,*69
1510916439.22,56271,8.75,73654.0,-0.79,-2.79,-2.79,0,*69
1510916440.44,56272,8.75,73656.0,-0.79,-3.03,-2.87,0,*67
1510916441.64,56273,8.75,73652.8,-0.79,-2.91,-2.91,0,*6B
1510916442.86,56274,8.75,73652.8,-0.79,-2.91,-2.87,0,*6B
1510916444.07,56275,8.75,73652.3,-0.79,-3.03,-3.03,0,*6D
1510916445.26,56276,8.75,73654.3,-0.77,-3.03,-3.03,0,*60
1510916446.45,56277,8.75,73654.0,-0.77,-3.03,-3.03,0,*61
1510916447.68,56278,8.75,73652.0,-0.75,-2.95,-2.99,0,*60
1510916448.87,56279,8.75,73652.3,-0.77,-3.03,-2.99,0,*6D
1510916450.08,56280,8.75,73652.8,-0.79,-2.91,-2.91,0,*67
1510916451.29,56281,8.75,73652.0,-0.79,-2.91,-2.91,0,*66
1510916452.5,56282,8.75,73658.8,-0.79,-2.87,-2.79,0,*64
1510916453.77,56283,8.75,73652.3,-0.79,-2.75,-2.75,0,*64
1510916455.01,56284,8.81,73656.8,-0.79,-2.79,-2.75,0,*6F
1510916456.26,56285,8.75,73654.3,-0.77,-2.75,-2.63,0,*6B
1510916457.5,56286,8.75,73658.3,-0.77,-2.67,-2.67,0,*6F
1510916458.77,56287,8.75,73656.5,-0.75,-2.59,-2.63,0,*65
1510916460.01,56288,8.75,73648.8,-0.77,-2.67,-2.63,0,*65
1510916461.28,56289,8.75,73654.5,-0.75,-2.51,-2.51,0,*62
1510916462.55,56290,8.75,73658.5,-0.75,-2.51,-2.47,0,*6D
1510916463.82,56291,8.75,73654.3,-0.75,-2.63,-2.59,0,*62
1510916465.09,56292,8.81,73658.0,-0.75,-2.63,-2.63,0,*68
1510916466.37,56293,8.75,73654.5,-0.75,-2.71,-2.75,0,*6D
1510916467.64,56294,8.75,73654.8,-0.75,-2.63,-2.71,0,*6D
1510916468.9,56295,8.75,73658.0,-0.75,-2.59,-2.59,0,*6F
1510916470.16,56296,8.75,73652.0,-0.75,-2.59,-2.59,0,*6C
1510916471.43,56297,8.75,73654.8,-0.75,-2.59,-2.51,0,*65
1510916472.64,56298,8.81,73658.5,-0.73,-2.39,-2.47,0,*6D
1510916473.89,56299,8.75,73652.3,-0.73,-2.47,-2.47,0,*65
1510916475.13,56300,8.75,73654.0,-0.73,-2.51,-2.51,0,*64
1510916476.4,56301,8.75,73652.0,-0.71,-2.71,-2.67,0,*60
1510916477.66,56302,8.75,73652.3,-0.71,-2.59,-2.55,0,*68
1510916478.93,56303,8.75,73654.5,-0.71,-2.71,-2.67,0,*62
1510916480.14,56304,8.75,73652.5,-0.71,-3.07,-3.07,0,*62
1510916481.35,56305,8.81,73652.0,-0.71,-3.03,-3.03,0,*63
1510916482.57,56306,8.75,73648.8,-0.71,-2.95,-2.91,0,*64
1510916483.78,56307,8.81,73652.8,-0.71,-3.07,-3.07,0,*61
1510916484.99,56308,8.75,73654.3,-0.71,-3.03,-3.03,0,*6E
1510916486.2,56309,8.75,73652.8,-0.71,-2.83,-2.79,0,*6A
1510916487.47,56310,8.81,73654.5,-0.71,-2.71,-2.67,0,*60
1510916488.65,56311,8.75,73652.3,-0.69,-2.83,-2.83,0,*6F
1510916489.9,56312,8.75,73650.3,-0.69,-2.71,-2.71,0,*6C
1510916491.11,56313,8.75,73650.8,-0.71,-3.07,-3.07,0,*64
1510916492.31,56314,8.75,73652.5,-0.71,-3.23,-3.19,0,*6A
1510916493.52,56315,8.75,73648.5,-0.71,-2.91,-2.91,0,*62
1510916494.7,56316,8.81,73654.3,-0.69,-2.83,-2.83,0,*68
1510916495.92,56317,8.75,73652.8,-0.71,-2.95,-2.91,0,*64
1510916497.19,56318,8.75,73652.8,-0.71,-2.71,-2.67,0,*68
1510916498.45,56319,8.75,73654.3,-0.71,-2.59,-2.59,0,*6E
1510916499.71,56320,8.75,73652.0,-0.71,-2.59,-2.55,0,*68
1510916500.94,56321,8.81,73656.8,-0.71,-2.55,-2.43,0,*62
1510916502.21,56322,8.75,73652.5,-0.71,-2.67,-2.59,0,*6B
1510916503.39,56323,8.75,73652.3,-0.69,-2.79,-2.79,0,*6E
1510916504.57,56324,8.75,73652.5,-0.69,-2.91,-2.91,0,*69
1510916505.76,56325,8.81,73656.0,-0.69,-2.99,-2.91,0,*60
1510916506.94,56326,8.75,73652.5,-0.69,-3.19,-3.19,0,*6B
1510916508.13,56327,8.81,73654.0,-0.69,-3.03,-3.03,0,*6A
1510916509.32,56328,8.75,73652.5,-0.69,-2.87,-2.79,0,*64
1510916510.51,56329,8.75,73648.8,-0.69,-3.07,-3.03,0,*60
1510916511.69,56330,8.75,73650.8,-0.69,-3.07,-3.07,0,*6C
1510916512.89,56331,8.75,73652.3,-0.69,-2.95,-3.03,0,*63
1510916514.08,56332,8.75,73648.0,-0.69,-2.91,-2.95,0,*6A
1510916515.29,56333,8.75,73650.0,-0.67,-2.91,-2.91,0,*61
1510916516.51,56334,8.75,73652.0,-0.67,-3.03,-2.99,0,*64
1510916517.69,56335,8.81,73652.5,-0.69,-3.07,-3.07,0,*69
1510916518.88,56336,8.75,73648.3,-0.69,-3.03,-3.03,0,*6A
1510916520.07,56337,8.75,73648.0,-0.69,-3.19,-3.19,0,*6B
1510916521.29,56338,8.75,73648.8,-0.67,-3.27,-3.27,0,*6A
1510916522.48,56339,8.75,73650.0,-0.69,-3.35,-3.31,0,*61
1510916523.69,56340,8.75,73648.3,-0.69,-3.35,-3.43,0,*6A
1510916524.93,56341,8.75,73648.0,-0.69,-3.43,-3.43,0,*6A
1510916526.18,56342,8.75,73646.5,-0.71,-3.43,-3.55,0,*67
1510916527.44,56343,8.81,73652.8,-0.71,-3.47,-3.47,0,*61
1510916528.64,56344,8.75,73650.3,-0.71,-3.23,-3.23,0,*66
1510916529.88,56345,8.75,73652.0,-0.71,-3.35,-3.43,0,*66
1510916531.07,56346,8.75,73654.5,-0.73,-3.27,-3.35,0,*65
1510916532.31,56347,8.75,73652.3,-0.71,-3.31,-3.43,0,*60
1510916533.51,56348,8.75,73654.8,-0.73,-3.35,-3.47,0,*6D
1510916534.77,56349,8.75,73652.0,-0.71,-3.47,-3.55,0,*68
1510916536.01,56350,8.75,73652.5,-0.71,-3.35,-3.47,0,*66
1510916537.21,56351,8.81,73654.8,-0.71,-3.07,-3.31,0,*67
1510916538.41,56352,8.75,73656.0,-0.73,-3.15,-3.27,0,*62
1510916539.63,56353,8.81,73658.5,-0.71,-3.79,-4.13,0,*6B
1510916540.85,56354,8.75,73650.5,-0.73,-3.75,-4.01,0,*61
1510916542.06,56355,8.75,73652.3,-0.73,-3.35,-3.51,0,*66
1510916543.3,56356,8.75,73652.8,-0.71,-3.35,-3.55,0,*63
1510916544.51,56357,8.75,73652.5,-0.73,-3.59,-3.75,0,*68
1510916545.77,56358,8.75,73652.8,-0.71,-3.59,-3.71,0,*61
1510916547.0,56359,8.75,73654.0,-0.73,-3.51,-3.63,0,*69
1510916548.27,56360,8.75,73652.8,-0.71,-3.55,-3.59,0,*6C
1510916549.52,56361,8.75,73654.0,-0.71,-3.43,-3.55,0,*66
1510916550.78,56362,8.75,73652.8,-0.71,-3.47,-3.67,0,*60
1510916552.03,56363,8.75,73654.0,-0.71,-3.55,-3.67,0,*62
1510916553.27,56364,8.75,73652.3,-0.71,-3.67,-3.79,0,*6B
1510916554.48,56365,8.75,73652.8,-0.69,-3.71,-3.83,0,*61
1510916555.68,56366,8.75,73652.5,-0.69,-3.91,-3.95,0,*6B
1510916556.88,56367,8.81,73656.3,-0.69,-3.91,-4.09,0,*68
1510916558.12,56368,8.81,73654.3,-0.71,-3.83,-4.01,0,*65
1510916559.36,56369,8.75,73652.0,-0.71,-3.71,-3.83,0,*64
1510916560.62,56370,8.75,73652.3,-0.71,-3.71,-3.71,0,*61
1510916561.87,56371,8.81,73656.5,-0.71,-3.47,-3.67,0,*62
1510916563.1,56372,8.75,73650.5,-0.69,-3.79,-4.01,0,*62
1510916564.33,56373,8.75,73648.3,-0.69,-3.71,-4.01,0,*6B
1510916565.56,56374,8.75,73654.0,-0.69,-3.79,-4.01,0,*64
1510916566.8,56375,8.75,73654.0,-0.71,-3.79,-4.01,0,*6C
1510916568.07,56376,8.75,73650.0,-0.71,-3.71,-4.01,0,*67
1510916569.33,56377,8.75,73650.0,-0.71,-3.71,-4.01,0,*66
1510916570.53,56378,8.75,73648.5,-0.69,-3.79,-4.09,0,*60
1510916571.76,56379,8.75,73650.5,-0.71,-3.91,-4.21,0,*64
1510916572.98,56380,8.75,73652.8,-0.71,-3.91,-4.21,0,*62
1510916574.18,56381,8.81,73654.5,-0.69,-3.91,-4.13,0,*6B
1510916575.41,56382,8.75,73648.5,-0.69,-3.83,-4.01,0,*68
1510916576.65,56383,8.81,73654.5,-0.71,-3.83,-4.01,0,*60
1510916577.85,56384,8.75,73652.0,-0.73,-3.95,-4.05,0,*66
1510916579.06,56385,8.75,73648.0,-0.73,-3.87,-4.01,0,*60
1510916580.28,56386,8.75,73650.8,-0.71,-3.83,-3.95,0,*6F
1510916581.48,56387,8.75,73650.8,-0.73,-3.75,-3.75,0,*6B
1510916582.72,56388,8.75,73648.3,-0.71,-3.71,-3.79,0,*6E
1510916583.96,56389,8.81,73652.0,-0.71,-3.71,-3.79,0,*6F
1510916585.17,56390,8.81,73652.3,-0.73,-3.71,-3.75,0,*69
1510916586.38,56391,8.75,73648.8,-0.73,-3.71,-3.83,0,*61
1510916587.6,56392,8.75,73652.0,-0.73,-3.75,-4.01,0,*6B
1510916588.79,56393,8.75,73648.0,-0.73,-3.75,-3.87,0,*63
1510916590.01,56394,8.81,73652.8,-0.73,-3.95,-4.01,0,*63
1510916591.2,56395,8.75,73648.0,-0.73,-3.95,-4.05,0,*66
1510916592.42,56396,8.75,73654.0,-0.75,-3.95,-4.05,0,*63
1510916593.67,56397,8.75,73652.8,-0.75,-3.59,-3.75,0,*62
1510916594.92,56398,8.75,73650.5,-0.75,-3.83,-4.01,0,*6E
1510916596.14,56399,8.75,73650.0,-0.75,-3.75,-3.83,0,*6B
1510916597.41,56400,8.75,73650.8,-0.75,-3.63,-3.63,0,*65
1510916598.67,56401,8.75,73648.0,-0.75,-3.59,-3.71,0,*6E
1510916599.93,56402,8.75,73650.0,-0.75,-3.63,-3.63,0,*67
1510916601.17,56403,8.75,73650.0,-0.75,-3.39,-3.47,0,*6F
1510916602.4,56404,8.75,73650.8,-0.77,-3.63,-3.63,0,*63
1510916603.66,56405,8.75,73648.8,-0.75,-3.71,-3.71,0,*60
1510916604.89,56406,8.81,73654.5,-0.77,-3.51,-3.55,0,*65
1510916606.13,56407,8.75,73652.0,-0.77,-3.55,-3.67,0,*61
1510916607.36,56408,8.75,73650.8,-0.75,-3.71,-3.83,0,*60
1510916608.59,56409,8.75,73652.8,-0.75,-3.75,-3.87,0,*61
1510916609.79,56410,8.81,73656.3,-0.77,-3.79,-3.91,0,*60
1510916610.98,56411,8.75,73650.8,-0.73,-3.75,-3.83,0,*6A
1510916612.21,56412,8.75,73652.5,-0.75,-3.83,-4.05,0,*6F
1510916613.43,56413,8.75,73654.8,-0.75,-3.95,-4.05,0,*69
1510916614.67,56414,8.75,73650.8,-0.75,-3.95,-4.01,0,*6A
1510916615.95,56415,8.81,73652.5,-0.75,-4.01,-4.01,0,*61
1510916617.13,56416,8.75,73654.5,-0.73,-3.87,-3.83,0,*60
1510916618.32,56417,8.75,73652.5,-0.73,-3.95,-3.83,0,*62
1510916619.52,56418,8.81,73656.8,-0.73,-3.87,-3.75,0,*67
1510916620.72,56419,8.75,73652.5,-0.73,-3.87,-3.71,0,*62
1510916621.98,56420,8.75,73652.8,-0.71,-3.71,-3.59,0,*69
1510916623.22,56421,8.75,73656.5,-0.73,-3.71,-3.59,0,*6A
1510916624.47,56422,8.75,73654.0,-0.71,-3.71,-3.55,0,*67
1510916625.71,56423,8.75,73654.5,-0.71,-3.47,-3.35,0,*65
1510916626.93,56424,8.75,73656.3,-0.71,-3.11,-3.11,0,*67
1510916628.14,56425,8.75,73654.8,-0.71,-3.11,-3.03,0,*65
1510916629.35,56426,8.75,73652.0,-0.71,-3.07,-3.03,0,*61
1510916630.54,56427,8.75,73654.0,-0.69,-3.19,-3.19,0,*6D
1510916631.73,56428,8.81,73656.5,-0.69,-3.19,-3.11,0,*6A
1510916632.91,56429,8.81,73656.8,-0.69,-3.19,-3.19,0,*63
1510916634.1,56430,8.81,73656.5,-0.69,-3.19,-3.11,0,*63
1510916635.31,56431,8.75,73654.0,-0.67,-3.07,-3.07,0,*64
1510916636.53,56432,8.75,73654.3,-0.67,-3.15,-3.15,0,*67
1510916637.79,56433,8.81,73658.3,-0.67,-3.55,-3.63,0,*63
1510916639.01,56434,8.75,73654.3,-0.69,-4.01,-4.09,0,*67
1510916640.23,56435,8.75,73654.8,-0.67,-3.79,-3.95,0,*62
1510916641.46,56436,8.75,73654.3,-0.63,-3.75,-3.91,0,*6D
1510916642.71,56437,8.75,73650.3,-0.63,-3.91,-4.01,0,*68
1510916643.91,56438,8.75,73654.5,-0.61,-3.91,-4.13,0,*66
1510916645.09,56439,8.81,73658.3,-0.61,-4.05,-4.17,0,*69
1510916646.31,56440,8.81,73656.0,-0.63,-4.29,-4.41,0,*68
1510916647.55,56441,8.75,73652.0,-0.63,-4.61,-4.69,0,*6F
1510916648.74,56442,8.75,73652.8,-0.61,-4.37,-4.53,0,*64
1510916649.93,56443,8.81,73658.3,-0.61,-4.37,-4.41,0,*66
1510916651.12,56444,8.75,73654.5,-0.61,-4.65,-4.65,0,*60
1510916652.36,56445,8.81,73658.3,-0.61,-4.81,-4.69,0,*67
1510916653.6,56446,8.75,73652.3,-0.61,-4.89,-4.81,0,*6A
1510916654.81,56447,8.81,73658.0,-0.61,-4.69,-4.65,0,*6F
1510916655.99,56448,8.81,73658.0,-0.61,-4.37,-4.41,0,*6D
1510916657.18,56449,8.81,73658.8,-0.61,-4.29,-4.41,0,*63
1510916658.39,56450,8.75,73654.0,-0.61,-4.61,-4.77,0,*62
1510916659.63,56451,8.75,73652.0,-0.61,-4.81,-4.89,0,*6C
1510916660.87,56452,8.75,73654.5,-0.61,-4.81,-4.89,0,*6F
1510916662.1,56453,8.75,73654.0,-0.61,-4.77,-4.69,0,*69
1510916663.29,56454,8.81,73658.5,-0.61,-4.61,-4.53,0,*60
1510916664.49,56455,8.81,73656.8,-0.61,-4.25,-4.29,0,*6C
1510916665.76,56456,8.75,73652.5,-0.63,-4.01,-4.01,0,*61
1510916666.99,56457,8.75,73654.0,-0.63,-3.91,-3.87,0,*67
1510916668.18,56458,8.75,73656.0,-0.61,-3.83,-3.75,0,*64
1510916669.38,56459,8.75,73656.0,-0.61,-3.91,-3.91,0,*6C
1510916670.58,56460,8.75,73652.5,-0.61,-3.87,-3.91,0,*61
1510916671.8,56461,8.75,73654.3,-0.61,-4.01,-4.05,0,*63
1510916673.02,56462,8.75,73654.3,-0.61,-4.01,-4.05,0,*60
1510916674.25,56463,8.81,73656.8,-0.61,-3.71,-3.63,0,*66
1510916675.49,56464,8.75,73656.0,-0.61,-3.59,-3.47,0,*6D
1510916676.67,56465,8.75,73652.8,-0.61,-3.39,-3.15,0,*6D
1510916677.87,56466,8.75,73654.8,-0.61,-3.27,-3.11,0,*65
1510916679.08,56467,8.81,73652.5,-0.59,-3.23,-3.07,0,*6C
1510916680.34,56468,8.75,73650.8,-0.59,-3.67,-3.55,0,*64
1510916681.61,56469,8.75,73650.5,-0.59,-3.59,-3.43,0,*6F
1510916682.8,56470,8.75,73650.0,-0.61,-3.35,-3.15,0,*65
1510916683.99,56471,8.75,73652.5,-0.61,-3.15,-3.15,0,*66
1510916685.18,56472,8.81,73658.0,-0.61,-3.11,-2.99,0,*64
1510916686.4,56473,8.75,73652.3,-0.59,-3.11,-2.99,0,*6E
1510916687.62,56474,8.75,73652.8,-0.59,-3.35,-3.19,0,*66
1510916688.83,56475,8.75,73650.5,-0.57,-3.43,-3.35,0,*66
1510916690.05,56476,8.75,73654.0,-0.59,-3.35,-3.35,0,*6A
1510916691.24,56477,8.81,73654.5,-0.57,-3.23,-3.19,0,*6C
1510916692.45,56478,8.81,73654.3,-0.59,-2.99,-2.91,0,*6C
1510916693.67,56479,8.81,73654.0,-0.59,-3.07,-2.95,0,*6F
1510916694.86,56480,8.81,73654.5,-0.57,-3.07,-3.07,0,*6D
1510916696.1,56481,8.81,73652.3,-0.59,-3.43,-3.31,0,*67
1510916697.32,56482,8.81,73650.5,-0.59,-3.35,-3.31,0,*65
1510916698.58,56483,8.75,73648.8,-0.59,-3.55,-3.43,0,*67
1510916699.8,56484,8.75,73648.0,-0.59,-3.35,-3.23,0,*60
1510916701.01,56485,8.81,73652.0,-0.59,-2.99,-2.91,0,*6E
1510916702.23,56486,8.81,73650.5,-0.59,-2.95,-2.91,0,*61
1510916703.46,56487,8.75,73652.3,-0.59,-2.95,-2.95,0,*64
1510916704.69,56488,8.81,73652.5,-0.59,-2.99,-2.95,0,*67
1510916705.9,56489,8.81,73650.0,-0.59,-3.31,-3.23,0,*69
1510916707.11,56490,8.75,73648.8,-0.59,-3.31,-3.23,0,*61
1510916708.33,56491,8.75,73648.8,-0.59,-3.23,-3.19,0,*6A
1510916709.54,56492,8.75,73650.5,-0.59,-3.07,-3.07,0,*60
1510916710.75,56493,8.81,73650.0,-0.59,-2.91,-2.91,0,*61
1510916711.97,56494,8.75,73650.3,-0.59,-2.91,-2.83,0,*65
1510916713.18,56495,8.75,73648.8,-0.59,-2.91,-2.83,0,*64
1510916714.38,56496,8.81,73650.8,-0.61,-2.95,-2.95,0,*6F
1510916715.57,56497,8.81,73650.3,-0.61,-2.87,-2.87,0,*6E
1510916716.79,56498,8.75,73650.8,-0.59,-2.95,-2.83,0,*6D
1510916717.98,56499,8.81,73652.3,-0.57,-3.07,-3.07,0,*65
1510916719.19,56500,8.75,73648.5,-0.59,-2.91,-2.91,0,*6A
1510916720.41,56501,8.81,73652.5,-0.59,-2.91,-2.83,0,*68
1510916721.62,56502,8.75,73648.8,-0.59,-2.91,-2.83,0,*6B
1510916722.87,56503,8.81,73650.5,-0.59,-2.79,-2.67,0,*66
1510916724.11,56504,8.75,73648.3,-0.57,-2.67,-2.55,0,*61
1510916725.34,56505,8.75,73650.3,-0.57,-2.59,-2.59,0,*61
1510916726.53,56506,8.81,73654.8,-0.57,-2.83,-2.83,0,*62
1510916727.71,56507,8.81,73652.3,-0.57,-2.79,-2.79,0,*63
1510916728.96,56508,8.81,73652.5,-0.57,-2.67,-2.67,0,*6C
1510916730.22,56509,8.81,73656.0,-0.59,-2.67,-2.55,0,*62
1510916731.46,56510,8.81,73654.0,-0.57,-2.67,-2.55,0,*64
1510916732.65,56511,8.81,73654.8,-0.57,-2.79,-2.79,0,*64
1510916733.84,56512,8.75,73654.3,-0.57,-2.83,-2.83,0,*67
1510916735.02,56513,8.81,73652.5,-0.57,-2.83,-2.83,0,*66
1510916736.22,56514,8.81,73654.0,-0.57,-2.95,-2.83,0,*66
1510916737.43,56515,8.75,73652.8,-0.59,-2.79,-2.79,0,*6E
1510916738.62,56516,8.81,73654.5,-0.57,-2.83,-2.83,0,*63
1510916739.86,56517,8.75,73654.3,-0.57,-2.71,-2.67,0,*65
1510916741.1,56518,8.75,73652.0,-0.57,-2.71,-2.67,0,*6A
1510916742.35,56519,8.81,73654.5,-0.57,-2.71,-2.71,0,*6C
1510916743.53,56520,8.75,73654.0,-0.57,-2.83,-2.83,0,*66
1510916744.72,56521,8.75,73654.5,-0.57,-2.79,-2.79,0,*67
1510916745.92,56522,8.81,73654.5,-0.57,-2.95,-2.95,0,*64
1510916747.14,56523,8.75,73652.8,-0.55,-2.95,-2.95,0,*67
1510916748.32,56524,8.75,73654.0,-0.57,-2.91,-2.79,0,*64
1510916749.54,56525,8.81,73652.0,-0.57,-2.79,-2.71,0,*6B
1510916750.75,56526,8.75,73652.0,-0.57,-2.83,-2.71,0,*6D
1510916751.97,56527,8.75,73654.0,-0.57,-2.79,-2.71,0,*69
1510916753.24,56528,8.75,73650.5,-0.55,-2.75,-2.67,0,*6F
1510916754.48,56529,8.75,73652.5,-0.57,-2.67,-2.67,0,*6F
1510916755.72,56530,8.75,73652.5,-0.57,-2.71,-2.71,0,*67
1510916756.99,56531,8.75,73650.8,-0.55,-2.75,-2.75,0,*64
1510916758.2,56532,8.75,73654.3,-0.55,-2.79,-2.79,0,*67
1510916759.46,56533,8.81,73656.5,-0.55,-2.75,-2.67,0,*65
1510916760.67,56534,8.75,73652.0,-0.55,-2.87,-2.91,0,*66
1510916761.86,56535,8.75,73650.5,-0.57,-2.95,-2.91,0,*66
1510916763.04,56536,8.75,73654.8,-0.57,-2.91,-2.91,0,*61
1510916764.28,56537,8.81,73652.3,-0.55,-2.79,-2.75,0,*6E
1510916765.49,56538,8.75,73652.3,-0.55,-2.79,-2.79,0,*6D
1510916766.73,56539,8.75,73652.5,-0.55,-2.87,-2.75,0,*61
1510916768.0,56540,8.75,73650.8,-0.55,-2.75,-2.67,0,*61
1510916769.26,56541,8.75,73650.5,-0.55,-2.67,-2.63,0,*67
1510916770.53,56542,8.81,73652.8,-0.55,-2.63,-2.55,0,*65
1510916771.8,56543,8.81,73652.3,-0.55,-2.67,-2.63,0,*65
1510916773.01,56544,8.81,73656.0,-0.55,-2.91,-2.87,0,*61
1510916774.25,56545,8.81,73654.0,-0.53,-2.75,-2.67,0,*62
1510916775.49,56546,8.75,73652.3,-0.53,-2.67,-2.63,0,*66
1510916776.74,56547,8.75,73650.3,-0.53,-2.63,-2.63,0,*63
1510916778.0,56548,8.75,73648.5,-0.55,-2.75,-2.67,0,*69
1510916779.22,56549,8.75,73650.0,-0.55,-3.07,-2.95,0,*61
1510916780.44,56550,8.81,73654.0,-0.53,-2.79,-2.63,0,*6E
1510916781.7,56551,8.81,73652.5,-0.55,-2.67,-2.63,0,*66
1510916782.95,56552,8.75,73652.3,-0.53,-2.63,-2.55,0,*62
1510916784.22,56553,8.75,73654.0,-0.55,-2.63,-2.63,0,*60
1510916785.46,56554,8.75,73652.0,-0.53,-2.67,-2.67,0,*61
1510916786.7,56555,8.81,73654.0,-0.53,-2.67,-2.67,0,*60
1510916787.88,56556,8.75,73654.8,-0.53,-2.87,-2.79,0,*62
1510916789.07,56557,8.81,73654.3,-0.53,-3.03,-2.91,0,*68
1510916790.25,56558,8.81,73652.8,-0.53,-3.07,-3.03,0,*69
1510916791.47,56559,8.75,73648.8,-0.55,-3.07,-3.03,0,*6E
1510916792.69,56560,8.75,73652.3,-0.55,-2.95,-2.95,0,*60
1510916793.87,56561,8.81,73654.3,-0.53,-2.91,-2.87,0,*60
1510916795.08,56562,8.81,73652.0,-0.55,-3.03,-3.03,0,*62
1510916796.28,56563,8.81,73654.3,-0.53,-3.07,-2.95,0,*6F
1510916797.49,56564,8.81,73652.0,-0.55,-2.95,-2.91,0,*60
1510916798.68,56565,8.75,73650.5,-0.53,-3.19,-3.03,0,*68
1510916799.87,56566,8.75,73654.0,-0.53,-3.07,-3.03,0,*64
1510916801.11,56567,8.81,73654.0,-0.55,-2.87,-2.75,0,*6A
1510916802.3,56568,8.75,73650.5,-0.53,-2.79,-2.87,0,*6F
1510916803.48,56569,8.75,73652.0,-0.53,-2.91,-2.87,0,*68
1510916804.69,56570,8.81,73652.0,-0.55,-3.07,-3.03,0,*65
1510916805.9,56571,8.81,73654.0,-0.55,-3.07,-3.15,0,*63
1510916807.09,56572,8.75,73650.8,-0.53,-3.03,-2.95,0,*6B
1510916808.31,56573,8.81,73652.8,-0.55,-3.15,-3.07,0,*61
1510916809.52,56574,8.75,73654.0,-0.55,-3.19,-3.19,0,*65
1510916810.73,56575,8.75,73654.3,-0.55,-3.03,-2.91,0,*6E
1510916811.91,56576,8.81,73654.8,-0.53,-2.91,-2.91,0,*61
1510916813.13,56577,8.81,73652.8,-0.55,-2.95,-2.95,0,*66
1510916814.34,56578,8.75,73648.8,-0.55,-3.07,-3.03,0,*6D
1510916815.55,56579,8.81,73654.5,-0.55,-3.19,-3.19,0,*68
1510916816.78,56580,8.81,73656.0,-0.57,-3.43,-3.43,0,*6C
1510916817.97,56581,8.81,73654.3,-0.57,-3.31,-3.23,0,*6E
1510916819.19,56582,8.81,73652.5,-0.59,-2.95,-2.91,0,*64
1510916820.41,56583,8.81,73656.0,-0.55,-3.15,-3.03,0,*6A
1510916821.62,56584,8.75,73654.0,-0.59,-3.31,-3.23,0,*65
1510916822.81,56585,8.81,73654.5,-0.57,-3.19,-3.11,0,*61
1510916824.03,56586,8.81,73652.5,-0.59,-3.11,-3.11,0,*64
1510916825.25,56587,8.81,73652.5,-0.59,-3.07,-2.99,0,*63
1510916826.44,56588,8.75,73654.0,-0.57,-3.07,-2.99,0,*62
1510916827.63,56589,8.81,73654.8,-0.57,-2.99,-2.99,0,*65
1510916828.82,56590,8.75,73652.3,-0.57,-2.95,-2.91,0,*69
1510916830.01,56591,8.81,73654.8,-0.57,-2.99,-2.91,0,*64
1510916831.19,56592,8.81,73654.3,-0.57,-2.99,-2.91,0,*67
1510916832.42,56593,8.75,73652.3,-0.59,-2.99,-2.99,0,*60
1510916833.64,56594,8.81,73654.3,-0.59,-3.07,-2.95,0,*6D
1510916834.86,56595,8.81,73654.3,-0.59,-3.11,-3.11,0,*66
1510916836.05,56596,8.81,73652.0,-0.57,-2.95,-2.91,0,*6F
1510916837.23,56597,8.75,73652.3,-0.57,-2.91,-2.79,0,*6C
1510916838.5,56598,8.81,73652.5,-0.55,-2.75,-2.63,0,*60
1510916839.73,56599,8.81,73654.0,-0.57,-2.67,-2.59,0,*69
1510916840.97,56600,8.75,73650.0,-0.57,-2.67,-2.71,0,*60
1510916842.24,56601,8.75,73652.5,-0.55,-2.67,-2.67,0,*64
1510916843.45,56602,8.75,73652.0,-0.53,-2.79,-2.75,0,*6D
1510916844.64,56603,8.81,73654.0,-0.53,-2.79,-2.79,0,*60
1510916845.85,56604,8.81,73654.8,-0.55,-2.79,-2.79,0,*61
1510916847.06,56605,8.81,73654.3,-0.55,-3.03,-3.03,0,*60
1510916848.27,56606,8.81,73654.5,-0.55,-3.03,-3.03,0,*63
1510916849.48,56607,8.81,73654.3,-0.55,-3.19,-3.19,0,*62
1510916850.67,56608,8.75,73650.3,-0.53,-3.07,-3.07,0,*6B
1510916851.86,56609,8.81,73654.5,-0.57,-3.19,-3.07,0,*61
1510916853.07,56610,8.75,73652.3,-0.55,-3.15,-3.03,0,*63
1510916854.26,56611,8.81,73652.5,-0.57,-3.31,-3.23,0,*64
1510916855.44,56612,8.75,73650.8,-0.57,-3.23,-3.23,0,*64
1510916856.65,56613,8.81,73650.8,-0.59,-3.23,-3.19,0,*62
1510916857.83,56614,8.81,73652.3,-0.57,-3.23,-3.19,0,*6B
1510916859.04,56615,8.81,73652.3,-0.59,-3.23,-3.19,0,*64
1510916860.25,56616,8.81,73654.0,-0.59,-2.91,-2.91,0,*6E
1510916861.43,56617,8.81,73652.3,-0.57,-2.91,-2.91,0,*61
1510916862.63,56618,8.81,73650.8,-0.57,-2.95,-2.95,0,*6E
1510916863.82,56619,8.81,73650.3,-0.57,-2.91,-2.83,0,*6C
1510916865.03,56620,8.81,73648.8,-0.59,-2.91,-2.83,0,*68
1510916866.21,56621,8.81,73654.3,-0.57,-2.91,-2.79,0,*62
1510916867.4,56622,8.81,73652.3,-0.57,-2.79,-2.83,0,*62
1510916868.62,56623,8.81,73650.3,-0.59,-2.79,-2.83,0,*6D
1510916869.81,56624,8.75,73648.5,-0.57,-2.79,-2.83,0,*64
1510916871.0,56625,8.75,73648.3,-0.57,-2.79,-2.83,0,*65
1510916872.18,56626,8.81,73650.8,-0.57,-2.91,-2.91,0,*63
1510916873.37,56627,8.81,73648.3,-0.57,-2.99,-2.95,0,*6E
1510916874.58,56628,8.81,73652.3,-0.59,-2.91,-2.83,0,*60
1510916875.8,56629,8.81,73648.8,-0.57,-2.79,-2.71,0,*64
1510916877.07,56630,8.75,73650.0,-0.55,-2.75,-2.75,0,*66
1510916878.25,56631,8.81,73652.5,-0.57,-2.79,-2.83,0,*60
1510916879.44,56632,8.75,73648.0,-0.57,-2.91,-2.91,0,*66
1510916880.62,56633,8.81,73648.5,-0.57,-2.91,-2.91,0,*67
1510916881.81,56634,8.75,73646.5,-0.57,-3.11,-3.07,0,*67
1510916883.03,56635,8.81,73650.3,-0.59,-3.35,-3.31,0,*6B
1510916884.22,56636,8.81,73650.0,-0.57,-2.99,-2.99,0,*62
1510916885.4,56637,8.81,73650.8,-0.57,-2.91,-2.83,0,*60
1510916886.59,56638,8.81,73648.8,-0.57,-2.91,-2.79,0,*6A
1510916887.77,56639,8.81,73648.0,-0.57,-2.91,-2.83,0,*6E
1510916889.04,56640,8.81,73650.3,-0.55,-2.63,-2.63,0,*61
1510916890.31,56641,8.75,73646.8,-0.55,-2.67,-2.51,0,*65
1510916891.55,56642,8.81,73650.3,-0.53,-2.67,-2.63,0,*61
1510916892.81,56643,8.81,73648.5,-0.55,-2.67,-2.63,0,*66
1510916894.05,56644,8.81,73648.8,-0.53,-2.75,-2.55,0,*61
1510916895.32,56645,8.81,73648.5,-0.55,-2.63,-2.55,0,*61
1510916896.59,56646,8.81,73650.8,-0.55,-2.63,-2.51,0,*66
1510916897.84,56647,8.81,73650.8,-0.53,-2.67,-2.63,0,*64
1510916899.08,56648,8.81,73650.0,-0.53,-2.67,-2.63,0,*6B
1510916900.26,56649,8.75,73648.5,-0.53,-2.87,-2.79,0,*6F
1510916901.45,56650,8.81,73654.8,-0.53,-2.87,-2.79,0,*67
1510916902.67,56651,8.81,73654.0,-0.49,-2.87,-2.71,0,*65
1510916903.89,56652,8.81,73652.3,-0.49,-2.99,-2.75,0,*6D
1510916905.13,56653,8.81,73650.5,-0.51,-2.99,-2.75,0,*65
1510916906.33,56654,8.75,73650.5,-0.49,-3.15,-2.91,0,*64
1510916907.55,56655,8.81,73654.3,-0.51,-3.39,-2.99,0,*6A
1510916908.77,56656,8.81,73654.5,-0.51,-3.35,-2.91,0,*6D
1510916909.96,56657,8.81,73656.3,-0.49,-3.27,-2.87,0,*61
1510916911.19,56658,8.81,73648.0,-0.49,-3.63,-3.39,0,*6A
1510916912.42,56659,8.75,73646.3,-0.51,-3.63,-3.23,0,*69